Three Rivers, MI

11:07 PM EDT on September 16, 2019 (GMT -0400)
Three Rivers Municipal-Haines

Weather History for KHAI - August, 2019

Change the Weather History Date:

Friday, August 23, 2019

  Actual Average Record
Temperature  
Mean Temperature 63 °F -  
Max Temperature 74 °F 80 °F 94 °F (1954)
Min Temperature 52 °F 57 °F 38 °F (1952)
Degree Days  
Heating Degree Days 2    
Growing Degree Days 13 (Base 50)    
Moisture  
Dew Point 51 °F    
Average Humidity 67    
Maximum Humidity 89    
Minimum Humidity 40    
Precipitation  
Precipitation 0.00 in - - ()
Sea Level Pressure  
Sea Level Pressure 30.18 in    
Wind  
Wind Speed 1 mph (NE)    
Max Wind Speed 8 mph    
Max Gust Speed -    
Visibility 10 miles    
Events      
Averages and records for this station are not official NWS values.
T = Trace of Precipitation, MM = Missing Value Source: NWS Daily Summary

Daily Weather History Graph

Daily Weather History Graph

Search for Another Location

Airport or City:

Astronomy

Aug. 23, 2019 Rise Set
Actual Time 6:58 AM EDT 8:30 PM EDT
Civil Twilight 6:29 AM EDT 9:00 PM EDT
Nautical Twilight 5:53 AM EDT 9:35 PM EDT
Astronomical Twilight 5:15 AM EDT 10:13 PM EDT
Moon 12:15 AM EDT (8/23) 2:42 PM EDT (8/23)
Length of Visible Light 14h 31m
Length of Day
13h 32m
Waning Gibbous, 50% of the Moon is Illuminated
Aug 23
Waning Gibbous
Aug 30
New
Sep 5
First Quarter
Sep 14
Full
Sep 21
Last Quarter

Hourly Weather History & Observations

Time (EDT) Temp. Dew Point Humidity Pressure Visibility Wind Dir Wind Speed Gust Speed Precip Events Conditions
12:15 AM 61.9 °F 51.3 °F 68% 30.10 in 10.0 mi Calm Calm - N/A   Clear
12:16 AM 61.9 °F 51.1 °F 68% 30.10 in 10.0 mi Calm Calm - N/A   Clear
12:35 AM 61.7 °F 51.1 °F 68% 30.10 in 10.0 mi Calm Calm - N/A   Clear
12:59 AM 60.8 °F 51.6 °F 72% 30.10 in 10.0 mi Calm Calm - N/A   Clear
1:17 AM 59.4 °F 52.7 °F 79% 30.11 in 10.0 mi Calm Calm - N/A   Clear
1:35 AM 57.2 °F 52.5 °F 84% 30.11 in 10.0 mi Calm Calm - N/A   Clear
1:55 AM 56.8 °F 52.3 °F 85% 30.12 in 10.0 mi Calm Calm - N/A   Clear
2:15 AM 56.5 °F 52.7 °F 87% 30.12 in 10.0 mi Calm Calm - N/A   Clear
2:19 AM 56.8 °F 53.1 °F 87% 30.12 in 10.0 mi Calm Calm - N/A   Clear
2:38 AM 55.4 °F 52.2 °F 89% 30.12 in 10.0 mi Calm Calm - N/A   Clear
2:56 AM 55.0 °F 52.0 °F 89% 30.12 in 10.0 mi Calm Calm - N/A   Clear
3:16 AM 55.6 °F 52.0 °F 88% 30.12 in 10.0 mi Calm Calm - N/A   Clear
3:35 AM 54.7 °F 51.6 °F 89% 30.12 in 10.0 mi Calm Calm - N/A   Clear
3:36 AM 54.7 °F 51.6 °F 89% 30.12 in 10.0 mi Calm Calm - N/A   Clear
3:59 AM 55.8 °F 52.0 °F 87% 30.13 in 10.0 mi Calm Calm - N/A   Clear
4:17 AM 56.7 °F 52.0 °F 84% 30.14 in 10.0 mi Calm Calm - N/A   Clear
4:35 AM 56.7 °F 51.3 °F 82% 30.14 in 10.0 mi Calm Calm - N/A   Clear
4:36 AM 56.5 °F 51.3 °F 83% 30.14 in 10.0 mi Calm Calm - N/A   Clear
4:55 AM 55.6 °F 50.9 °F 84% 30.14 in 10.0 mi Calm Calm - N/A   Clear
4:56 AM 55.4 °F 50.9 °F 85% 30.14 in 10.0 mi Calm Calm - N/A   Clear
5:15 AM 55.4 °F 50.4 °F 83% 30.14 in 10.0 mi Calm Calm - N/A   Clear
5:38 AM 55.9 °F 50.2 °F 81% 30.14 in 10.0 mi Calm Calm - N/A   Clear
5:56 AM 55.9 °F 50.0 °F 80% 30.14 in 10.0 mi Calm Calm - N/A   Clear
6:15 AM 54.9 °F 50.0 °F 84% 30.14 in 10.0 mi Calm Calm - N/A   Clear
6:35 AM 55.0 °F 49.5 °F 81% 30.15 in 10.0 mi Calm Calm - N/A   Clear
6:59 AM 54.9 °F 49.1 °F 81% 30.16 in 10.0 mi Calm Calm - N/A   Clear
7:17 AM 53.8 °F 48.9 °F 84% 30.16 in 10.0 mi Calm Calm - N/A   Clear
7:35 AM 52.7 °F 49.5 °F 89% 30.17 in 10.0 mi Calm Calm - N/A   Clear
7:55 AM 55.0 °F 51.8 °F 89% 30.17 in 10.0 mi Calm Calm - N/A   Clear
8:20 AM 56.7 °F 51.1 °F 82% 30.18 in 10.0 mi Calm Calm - N/A   Clear
8:38 AM 59.0 °F 52.7 °F 80% 30.18 in 10.0 mi Calm Calm - N/A   Clear
8:56 AM 59.0 °F 52.5 °F 79% 30.19 in 10.0 mi East 3.5 mph - N/A   Clear
9:15 AM 59.9 °F 52.5 °F 77% 30.19 in 10.0 mi ENE 3.5 mph - N/A   Clear
9:35 AM 61.0 °F 52.9 °F 75% 30.20 in 10.0 mi NNE 3.5 mph - N/A   Clear
9:36 AM 61.0 °F 52.9 °F 75% 30.20 in 10.0 mi North 3.5 mph - N/A   Clear
9:59 AM 62.4 °F 53.6 °F 73% 30.21 in 10.0 mi NNE 3.5 mph - N/A   Clear
10:17 AM 64.0 °F 54.1 °F 70% 30.21 in 10.0 mi NE 3.5 mph - N/A   Clear
10:35 AM 64.8 °F 53.2 °F 66% 30.21 in 10.0 mi Calm Calm - N/A   Clear
10:55 AM 66.4 °F 53.4 °F 63% 30.22 in 10.0 mi Calm Calm - N/A   Clear
11:15 AM 67.3 °F 53.2 °F 61% 30.22 in 10.0 mi NE 4.6 mph - N/A   Clear
11:20 AM 67.5 °F 53.2 °F 60% 30.21 in 10.0 mi NNE 4.6 mph - N/A   Clear
11:38 AM 68.2 °F 52.5 °F 57% 30.21 in 10.0 mi Calm Calm - N/A   Clear
11:56 AM 69.6 °F 53.2 °F 56% 30.21 in 10.0 mi NE 4.6 mph - N/A   Clear
12:15 PM 70.5 °F 53.8 °F 55% 30.22 in 10.0 mi NNE 4.6 mph - N/A   Clear
12:16 PM 70.5 °F 53.1 °F 54% 30.22 in 10.0 mi NE 4.6 mph - N/A   Clear
12:35 PM 70.0 °F 49.6 °F 48% 30.22 in 10.0 mi North 6.9 mph - N/A   Scattered Clouds
12:36 PM 69.8 °F 49.8 °F 49% 30.22 in 10.0 mi North 5.8 mph - N/A   Scattered Clouds
12:59 PM 71.4 °F 52.7 °F 52% 30.22 in 10.0 mi North 5.8 mph - N/A   Scattered Clouds
1:17 PM 71.8 °F 52.0 °F 50% 30.21 in 10.0 mi North 8.1 mph - N/A   Mostly Cloudy
1:35 PM 71.6 °F 52.5 °F 51% 30.21 in 10.0 mi North 5.8 mph - N/A   Mostly Cloudy
1:55 PM 70.2 °F 50.4 °F 49% 30.21 in 10.0 mi ENE 5.8 mph - N/A   Scattered Clouds
1:56 PM 70.0 °F 50.2 °F 49% 30.21 in 10.0 mi ENE 5.8 mph - N/A   Scattered Clouds
2:38 PM 70.0 °F 50.9 °F 51% 30.21 in 10.0 mi North 3.5 mph - N/A   Mostly Cloudy
2:56 PM 73.0 °F 49.6 °F 44% 30.21 in 10.0 mi ENE 5.8 mph - N/A   Mostly Cloudy
3:15 PM 71.6 °F 48.6 °F 44% 30.19 in 10.0 mi NE 8.1 mph - N/A   Scattered Clouds
3:16 PM 71.4 °F 48.0 °F 43% 30.19 in 10.0 mi NE 6.9 mph - N/A   Scattered Clouds
3:35 PM 72.9 °F 47.3 °F 40% 30.19 in 10.0 mi ENE 6.9 mph - N/A   Scattered Clouds
3:59 PM 72.5 °F 47.3 °F 41% 30.18 in 10.0 mi ENE 4.6 mph - N/A   Scattered Clouds
4:17 PM 73.6 °F 49.8 °F 43% 30.18 in 10.0 mi ENE 6.9 mph - N/A   Clear
4:35 PM 72.9 °F 48.9 °F 43% 30.17 in 10.0 mi NNE 5.8 mph - N/A   Scattered Clouds
4:55 PM 73.4 °F 50.2 °F 44% 30.18 in 10.0 mi ENE 6.9 mph - N/A   Scattered Clouds
5:15 PM 73.0 °F 47.1 °F 40% 30.18 in 10.0 mi NNE 4.6 mph - N/A   Clear
5:19 PM 72.9 °F 47.3 °F 40% 30.18 in 10.0 mi NNE 4.6 mph - N/A   Clear
5:38 PM 74.3 °F 49.3 °F 41% 30.18 in 10.0 mi North 4.6 mph - N/A   Mostly Cloudy
5:56 PM 71.8 °F 50.5 °F 47% 30.19 in 10.0 mi NNE 4.6 mph - N/A   Scattered Clouds
6:15 PM 72.5 °F 50.4 °F 46% 30.19 in 10.0 mi Calm Calm - N/A   Scattered Clouds
6:35 PM 71.6 °F 48.4 °F 44% 30.19 in 10.0 mi ENE 5.8 mph - N/A   Scattered Clouds
6:36 PM 71.6 °F 48.4 °F 44% 30.19 in 10.0 mi ENE 5.8 mph - N/A   Scattered Clouds
6:59 PM 69.3 °F 50.7 °F 52% 30.19 in 10.0 mi Calm Calm - N/A   Scattered Clouds
7:17 PM 70.0 °F 50.4 °F 50% 30.19 in 10.0 mi Calm Calm - N/A   Clear
7:35 PM 69.6 °F 52.2 °F 54% 30.19 in 10.0 mi North 3.5 mph - N/A   Clear
7:55 PM 68.0 °F 50.7 °F 54% 30.19 in 10.0 mi Calm Calm - N/A   Scattered Clouds
7:56 PM 68.0 °F 50.7 °F 54% 30.19 in 10.0 mi Calm Calm - N/A   Scattered Clouds
8:15 PM 67.3 °F 51.1 °F 56% 30.19 in 10.0 mi Calm Calm - N/A   Scattered Clouds
8:20 PM 66.9 °F 51.6 °F 58% 30.19 in 10.0 mi Calm Calm - N/A   Scattered Clouds
8:38 PM 64.6 °F 53.8 °F 68% 30.19 in 10.0 mi Calm Calm - N/A   Clear
8:56 PM 64.2 °F 52.7 °F 66% 30.19 in 10.0 mi Calm Calm - N/A   Clear
9:15 PM 62.6 °F 53.6 °F 72% 30.20 in 10.0 mi Calm Calm - N/A   Clear
9:16 PM 62.6 °F 53.8 °F 73% 30.20 in 10.0 mi Calm Calm - N/A   Clear
9:35 PM 60.8 °F 53.4 °F 77% 30.21 in 10.0 mi Calm Calm - N/A   Clear
9:36 PM 60.6 °F 53.4 °F 77% 30.21 in 10.0 mi Calm Calm - N/A   Clear
9:59 PM 61.5 °F 52.3 °F 72% 30.22 in 10.0 mi Calm Calm - N/A   Clear
10:16 PM 60.8 °F 52.7 °F 75% 30.22 in 10.0 mi Calm Calm - N/A   Clear
10:35 PM 60.3 °F 52.9 °F 77% 30.22 in 10.0 mi Calm Calm - N/A   Clear
10:36 PM 60.3 °F 52.9 °F 77% 30.22 in 10.0 mi Calm Calm - N/A   Clear
10:55 PM 58.5 °F 52.7 °F 81% 30.23 in 10.0 mi Calm Calm - N/A   Clear
11:15 PM 58.1 °F 53.6 °F 85% 30.23 in 10.0 mi Calm Calm - N/A   Clear
11:38 PM 56.7 °F 52.9 °F 87% 30.24 in 10.0 mi Calm Calm - N/A   Clear
11:56 PM 56.3 °F 52.7 °F 88% 30.24 in 10.0 mi Calm Calm - N/A   Clear